Location: Ahoro
(8.3833°N, 4.4500°E)
Time: 05:54:45
(UTC+00:00)

Daily predictions for brighter satellites

Satellite Brightness Start Highest point End
(mag) Time Altitude Azimuth Time Altitude Azimuth Time Altitude Azimuth
FALCON 9 R/B 4.5 02:53:26 47° S 02:56:40 56° SE 03:33:30 10° ENE
BLOCK DM-SL R/B 4.4 03:15:12 43° SE 03:15:12 43° SE 03:23:45 10° ESE
Cosmos 1092 Rocket 4.2 03:30:13 57° SSE 03:31:25 71° E 03:37:43 10° N
GPS 2-12 Rocket1 4.5 03:40:55 32° NE 03:40:55 32° NE 03:44:11 10° E
Meteor 1-23 Rocket 4.3 03:42:18 51° SSE 03:43:45 74° E 03:49:25 10° N
Cosmos 2026 Rocket 4.3 03:37:46 10° S 03:43:53 62° E 03:49:53 10° NNE
SL-16 R/B 3.8 03:38:52 10° N 03:43:56 34° ENE 03:49:00 10° SE
Lacrosse 5 3.2 03:49:55 24° SSE 03:52:13 35° ESE 03:56:49 10° NE
Cosmos 1437 Rocket 3.4 03:57:18 45° SE 03:58:13 57° E 04:02:13 10° NNE
Cosmos 2263 Rocket 3.0 04:02:21 33° NW 04:02:21 33° NW 04:06:08 10° N
ALOS 3.9 03:57:38 10° NE 04:01:50 34° E 04:06:02 10° SSE
Palapa B4 Rocket 4.0 04:01:53 46° W 04:04:18 80° NNW 04:09:38 10° ENE
Ariane H10+ 4.1 03:59:50 35° WSW 04:05:09 67° SSE 04:40:02 10° E
ARIANE 5 DEB (SYLDA) 3.1 04:06:06 40° S 04:06:11 40° S 04:10:45 10° ESE
Cosmos 2237 Rocket 4.4 04:12:42 10° SSW 04:12:42 10° SSW 04:12:48 10° SSW
GPS 2-04 Rocket1 2.9 04:07:30 56° N 04:07:54 60° NE 04:11:37 10° ESE
CZ-2C R/B 3.8 04:05:13 10° NNW 04:07:03 22° NNW 04:07:03 22° NNW
Ariane 44LP R/B 4.0 04:13:55 40° SSW 04:14:17 42° S 04:18:17 10° ESE
BLOCK DM-SL R/B 3.9 04:15:07 15° SSE 04:15:07 15° SSE 04:16:12 10° SE
GPS 2-18 Rocket1 3.9 04:16:17 37° S 04:16:17 37° S 04:19:41 10° SE
Yuri Rocket 2.8 04:15:33 59° W 04:16:13 73° SSW 04:20:44 10° SE
Lacrosse 4 Rocket 3.8 04:15:19 10° SSE 04:18:40 23° ESE 04:22:04 10° NE
Cosmos 1975 Rocket 3.4 04:15:31 10° S 04:19:47 64° E 04:24:04 10° NNE
Centaur AC-146 4.3 04:28:43 22° WSW 04:30:31 24° SW 04:34:01 10° SSE
Meteor 1-31 Rocket 3.3 04:28:15 10° N 04:31:49 35° WNW 04:32:20 34° W
H-2A R/B 2.3 04:29:08 10° N 04:32:55 55° WNW 04:35:57 15° SSW
STARLINK-1170 3.9 04:32:48 34° WNW 04:33:18 36° NW 04:36:43 10° NNE
STARLINK-1150 3.9 04:33:04 34° WNW 04:33:28 35° NW 04:36:46 10° NNE
Okean 1 Rocket 3.3 04:29:22 10° N 04:33:44 70° E 04:38:09 10° S
Okean 2 3.2 04:31:02 10° S 04:35:10 75° W 04:39:17 10° N
Cosmos 494 Rocket 4.1 04:31:05 10° NNW 04:36:10 52° WSW 04:41:14 10° S
PSLV R/B 3.5 04:35:27 19° WNW 04:38:11 49° N 04:40:22 10° E
STARLINK-52 3.4 04:37:45 10° NNW 04:40:55 62° NE 04:44:04 10° SE
PSLV R/B 3.9 04:37:51 10° NNE 04:41:53 83° ESE 04:45:48 10° S
Cosmos 1689 Rocket 2.8 04:40:24 10° SSW 04:43:06 30° W 04:45:48 10° NW
PSLV R/B 4.0 04:39:55 10° SSE 04:44:08 86° ENE 04:48:20 10° N
BREEZE-M DEB (TANK) 3.9 04:45:05 14° NW 04:45:05 14° NW 04:46:22 10° NNW
TRAILBLAZER 4.4 04:41:24 10° NNW 04:45:53 78° WSW 04:50:21 10° SSE
SJ-12 3.8 04:42:04 10° N 04:46:05 67° WNW 04:50:05 10° SSW
Ariane 5 R/B 3.6 04:46:09 19° W 04:48:58 66° S 04:54:51 10° E
Meteor PRIRODA 4.1 04:47:13 10° N 04:50:39 37° WNW 04:54:05 10° SSW
Ariane H10+ 2.7 04:50:10 17° SSW 04:51:15 24° S 04:53:56 10° ESE
Cosmos 1844 4.0 04:46:00 10° S 04:51:31 67° ESE 04:57:00 10° NNE
Cosmos 1269 Rocket 4.1 04:46:36 10° NNW 04:51:46 56° WSW 04:56:56 10° S
PAYLOAD B 4.4 04:53:54 10° NNE 04:59:25 79° ESE 05:04:57 10° S
Cosmos 1025 Rocket 4.0 04:55:51 10° S 05:00:07 51° E 05:04:22 10° NNE
Cosmos 1766 4.1 04:58:15 10° N 05:02:00 53° E 05:05:46 10° SSE
ASTRO E2 3.9 04:58:43 10° NW 05:02:27 40° NNE 05:06:11 10° E
STARLINK-1140 4.5 04:58:30 10° SSW 05:02:31 50° ESE 05:06:31 10° NE
STARLINK-1159 4.4 04:59:11 10° SSW 05:03:14 53° SE 05:07:17 10° NE
Cosmos 1842 3.7 05:02:07 10° SSW 05:05:44 38° W 05:09:22 10° NNW
STARLINK-1156 4.2 05:03:27 10° SSW 05:07:31 59° SE 05:11:35 10° NE
STARLINK-1171 4.1 05:04:07 10° SSW 05:08:14 62° SE 05:12:20 10° NE
Cosmos 2056 Rocket 3.6 05:04:24 10° SSW 05:09:48 80° WNW 05:15:10 10° N
STARLINK-1148 3.9 05:08:20 10° SSW 05:12:26 69° SE 05:16:33 10° NE
STARLINK-1155 3.9 05:09:04 10° SSW 05:13:13 73° SE 05:17:21 10° NE
Aureole 3 Rocket 2.1 05:10:30 10° N 05:13:40 88° W 05:16:41 10° S
NOAA 6 4.0 05:10:34 10° N 05:15:40 81° WNW 05:20:49 10° SSW
H-2A R/B 4.0 05:12:07 10° NNE 05:15:51 48° E 05:19:36 10° S
STARLINK-1158 3.7 05:13:18 10° SSW 05:17:25 81° SE 05:21:33 10° NE
Cosmos 1536 Rocket 3.7 05:13:09 10° S 05:17:37 85° E 05:22:05 10° N
STARLINK-1166 3.7 05:14:01 10° SSW 05:18:11 85° SE 05:22:20 10° NE
SKYMED 2 3.8 05:15:32 10° SSE 05:19:51 80° E 05:24:11 10° N
